Location: *
(50.8667°S, 179.2667°W)
Time: 01:06:27
(UTC+00:00)

BREEZE-M TANK - Pass Details

Date: 02 October 2023
Orbit: 611 x 24671 km, 45.2° (Epoch: 29 November)

Event Time Altitude Azimuth Distance (km) Brightness Sun altitude
Exits shadow 14:01:56 55° 347° (NNW) 1,587 4.2 -28.3°
Maximum altitude 14:02:14 56° 356° (N) 1,631 4.3 -28.3°
Drops below altitude 10° 14:20:13 10° 67° (ENE) 8,448 8.5 -26.4°
Sets 14:34:18 0° 68° (ENE) 13,047 9.6 -24.8°
